Location: Newark
(44.2003°N, 3.2583°E)
Time: 16:30:40
(UTC+00:00)

SR - Pass Details

Date: 24 October 2019
Orbit: 574 x 882 km, 66.7° (Epoch: 17 November)

Event Time Altitude Azimuth Distance (km) Brightness Sun altitude
Rises 05:27:19 0° 329° (NNW) 3,454 ? -8.8°
Reaches altitude 10° 05:29:48 10° 331° (NNW) 2,532 ? -8.4°
Maximum altitude 05:35:44 74° 56° (ENE) 918 ? -7.3°
Drops below altitude 10° 05:41:37 10° 142° (SE) 2,509 ? -6.3°
Sets 05:44:04 0° 144° (SE) 3,421 ? -5.8°
